FW2834 Weather Reports


Display with metric or nautical units.
time (UTC)temp
F
wind
direction
speed
MPH
gust
MPH
rain 1hr
in
rain 24hr
in
rain mn
in
humidity
%
barometer
mb
20260903205506 94 279 0.0 1.0 0.00 0.00 0.00 47 1012.0
20260903205007 94 272 0.0 1.0 0.00 0.00 0.00 47 1012.2
20260903204506 94 272 0.0 3.0 0.00 0.00 0.00 45 1012.2
20260903204006 94 258 0.0 4.0 0.00 0.00 0.00 46 1012.3
20260903203506 94 10 1.0 4.0 0.00 0.00 0.00 44 1012.3
20260903203004 94 185 0.0 3.0 0.00 0.00 0.00 47 1012.3
20260903202502 94 187 0.0 3.0 0.00 0.00 0.00 49 1012.4
20260903202001 94 83 0.0 1.0 0.00 0.00 0.00 49 1012.4
20260903201601 94 159 0.0 1.0 0.00 0.00 0.00 47 1012.5
20260903201059 94 159 0.0 3.0 0.00 0.00 0.00 45 1012.6
20260903200559 94 159 0.0 3.0 0.00 0.00 0.00 47 1012.8
20260903200108 95 142 0.0 2.0 0.00 0.00 0.00 47 1012.9
20260903195557 95 142 0.0 2.0 0.00 0.00 0.00 46 1013.0
20260903195059 95 216 0.0 2.0 0.00 0.00 0.00 44 1013.0
20260903194557 95 215 0.0 3.0 0.00 0.00 0.00 45 1013.1
20260903194056 95 190 0.0 2.0 0.00 0.00 0.00 46 1013.2
20260903193556 95 317 0.0 2.0 0.00 0.00 0.00 44 1013.2
20260903193101 95 219 0.0 1.0 0.00 0.00 0.00 45 1013.2
20260903192555 96 23 0.0 2.0 0.00 0.00 0.00 45 1013.2
20260903192055 96 40 0.0 2.0 0.00 0.00 0.00 43 1013.2
20260903191602 96 286 0.0 1.0 0.00 0.00 0.00 44 1013.3
20260903191053 97 286 0.0 1.0 0.00 0.00 0.00 44 1013.4
20260903190553 97 286 0.0 2.0 0.00 0.00 0.00 45 1013.5
20260903190052 97 286 0.0 2.0 0.00 0.00 0.00 43 1013.5
20260903185550 96 323 0.0 3.0 0.00 0.00 0.00 43 1013.5
20260903185050 96 279 0.0 2.0 0.00 0.00 0.00 43 1013.6
20260903184552 96 281 0.0 2.0 0.00 0.00 0.00 44 1013.7
20260903184047 96 44 0.0 2.0 0.00 0.00 0.00 46 1013.7
20260903183545 95 40 0.0 2.0 0.00 0.00 0.00 44 1013.7
20260903183104 95 278 0.0 2.0 0.00 0.00 0.00 44 1013.8
20260903182546 95 331 0.0 4.0 0.00 0.00 0.00 43 1013.7
20260903182043 95 188 0.0 4.0 0.00 0.00 0.00 43 1013.6
20260903181542 95 305 0.0 4.0 0.00 0.00 0.00 45 1013.7
20260903181042 95 302 1.0 4.0 0.00 0.00 0.00 46 1013.8
20260903180542 94 34 0.0 1.0 0.00 0.00 0.00 46 1013.8
20260903180040 94 11 0.0 2.0 0.00 0.00 0.00 48 1013.9
20260903175540 94 360 0.0 3.0 0.00 0.00 0.00 45 1013.8
20260903175044 94 308 0.0 3.0 0.00 0.00 0.00 46 1014.0
20260903174540 94 349 0.0 3.0 0.00 0.00 0.00 47 1014.1
20260903174040 94 47 0.0 2.0 0.00 0.00 0.00 46 1014.2
20260903173541 94 316 0.0 2.0 0.00 0.00 0.00 46 1014.2
20260903173039 94 316 0.0 2.0 0.00 0.00 0.00 45 1014.2
20260903172541 94 22 0.0 3.0 0.00 0.00 0.00 45 1014.2
20260903172039 94 267 0.0 3.0 0.00 0.00 0.00 45 1014.3
20260903171538 94 188 1.0 3.0 0.00 0.00 0.00 43 1014.4
20260903171039 94 276 0.0 3.0 0.00 0.00 0.00 43 1014.4
20260903170538 94 291 0.0 4.0 0.00 0.00 0.00 44 1014.4
20260903170038 94 290 0.0 4.0 0.00 0.00 0.00 44 1014.5
20260903165538 94 231 0.0 2.0 0.00 0.00 0.00 44 1014.4
20260903165042 95 207 0.0 2.0 0.00 0.00 0.00 46 1014.5
20260903164537 95 279 0.0 3.0 0.00 0.00 0.00 46 1014.6
20260903164039 95 279 0.0 3.0 0.00 0.00 0.00 45 1014.7
20260903163534 95 313 1.0 3.0 0.00 0.00 0.00 47 1014.7
20260903163034 95 313 0.0 3.0 0.00 0.00 0.00 47 1014.6
20260903162532 95 275 0.0 3.0 0.00 0.00 0.00 48 1014.7
20260903162031 95 243 0.0 2.0 0.00 0.00 0.00 46 1014.7
20260903161536 95 159 1.0 3.0 0.00 0.00 0.00 48 1014.7
20260903161029 94 169 0.0 3.0 0.00 0.00 0.00 48 1014.8
20260903160528 94 292 0.0 3.0 0.00 0.00 0.00 49 1014.8
20260903160027 94 282 0.0 4.0 0.00 0.00 0.00 48 1014.8
20260903155533 94 222 0.0 4.0 0.00 0.00 0.00 48 1014.8
20260903155024 93 265 1.0 5.0 0.00 0.00 0.00 48 1014.8
20260903154523 93 188 0.0 2.0 0.00 0.00 0.00 51 1014.8
20260903154026 93 186 0.0 2.0 0.00 0.00 0.00 52 1014.8
20260903153519 92 155 0.0 1.0 0.00 0.00 0.00 55 1014.8
20260903153019 92 128 0.0 1.0 0.00 0.00 0.00 56 1014.8
20260903152517 92 63 0.0 1.0 0.00 0.00 0.00 58 1014.8
20260903152020 92 63 0.0 2.0 0.00 0.00 0.00 57 1014.8
20260903151514 91 64 0.0 2.0 0.00 0.00 0.00 56 1014.8
20260903151013 91 252 0.0 1.0 0.00 0.00 0.00 58 1014.8
20260903150512 90 252 0.0 1.0 0.00 0.00 0.00 58 1014.8
20260903150010 90 216 0.0 0.0 0.00 0.00 0.00 61 1014.7
20260903145508 89 213 0.0 0.0 0.00 0.00 0.00 63 1014.8
20260903145007 88 213 0.0 0.0 0.00 0.00 0.00 63 1014.7
20260903144506 88 212 0.0 0.0 0.00 0.00 0.00 65 1014.7
20260903144003 87 211 0.0 0.0 0.00 0.00 0.00 66 1014.7
20260903143503 86 211 0.0 0.0 0.00 0.00 0.00 66 1014.8
20260903143001 85 211 0.0 0.0 0.00 0.00 0.00 68 1014.8
20260903142600 85 211 0.0 0.0 0.00 0.00 0.00 69 1014.8
20260903142059 84 213 0.0 0.0 0.00 0.00 0.00 70 1014.8
20260903141558 83 213 0.0 2.0 0.00 0.00 0.00 72 1014.9
20260903141056 82 213 0.0 2.0 0.00 0.00 0.00 73 1014.9
20260903140555 81 208 0.0 1.0 0.00 0.00 0.00 74 1014.8
20260903140054 80 207 0.0 1.0 0.00 0.00 0.00 75 1014.8
20260903135552 79 216 0.0 0.0 0.00 0.00 0.00 77 1014.9
20260903135050 78 215 0.0 0.0 0.00 0.00 0.00 80 1014.8
20260903134602 78 215 0.0 0.0 0.00 0.00 0.00 83 1015.0
20260903134047 77 215 0.0 0.0 0.00 0.00 0.00 84 1015.1
20260903133546 77 219 0.0 0.0 0.00 0.00 0.00 85 1015.0
20260903133050 77 219 0.0 0.0 0.00 0.00 0.00 86 1015.0
20260903132544 76 165 0.0 0.0 0.00 0.00 0.00 86 1015.1
20260903132043 76 163 0.0 1.0 0.00 0.00 0.00 86 1015.1
20260903131543 76 163 0.0 1.0 0.00 0.00 0.00 86 1015.1
20260903131043 76 163 0.0 0.0 0.00 0.00 0.00 86 1015.2
20260903130542 75 163 0.0 0.0 0.00 0.00 0.00 85 1015.2
20260903130044 75 163 0.0 0.0 0.00 0.00 0.00 85 1015.1
20260903125541 75 163 0.0 0.0 0.00 0.00 0.00 84 1015.3
20260903125040 75 163 0.0 0.0 0.00 0.00 0.00 83 1015.2
20260903124555 74 163 0.0 0.0 0.00 0.00 0.00 82 1015.3
20260903124037 74 163 0.0 0.0 0.00 0.00 0.00 81 1015.2
20260903123536 74 163 0.0 0.0 0.00 0.00 0.00 81 1015.4
20260903123036 74 163 0.0 0.0 0.00 0.00 0.00 80 1015.5
20260903122536 74 163 0.0 0.0 0.00 0.00 0.00 79 1015.5
20260903122035 74 163 0.0 0.0 0.00 0.00 0.00 79 1015.5
20260903121545 73 163 0.0 0.0 0.00 0.00 0.00 79 1015.5
20260903121038 73 163 0.0 0.0 0.00 0.00 0.00 78 1015.4
20260903120533 73 163 0.0 0.0 0.00 0.00 0.00 78 1015.3
20260903120033 73 163 0.0 0.0 0.00 0.00 0.00 78 1015.3
20260903115532 73 163 0.0 0.0 0.00 0.00 0.00 78 1015.3
20260903115031 73 163 0.0 0.0 0.00 0.00 0.00 78 1015.3
20260903114533 73 163 0.0 0.0 0.00 0.00 0.00 78 1015.3
20260903114030 73 163 0.0 0.0 0.00 0.00 0.00 78 1015.2
20260903113529 73 163 0.0 0.0 0.00 0.00 0.00 78 1015.3
20260903113031 73 163 0.0 0.0 0.00 0.00 0.00 77 1015.2
20260903112528 73 163 0.0 0.0 0.00 0.00 0.00 78 1015.2
20260903112027 73 163 0.0 0.0 0.00 0.00 0.00 78 1015.1
20260903111526 73 163 0.0 0.0 0.00 0.00 0.00 78 1015.1
20260903111026 73 163 0.0 0.0 0.00 0.00 0.00 78 1015.0
20260903110526 74 163 0.0 0.0 0.00 0.00 0.00 78 1015.0
20260903110026 74 163 0.0 0.0 0.00 0.00 0.00 78 1015.0
20260903105525 74 163 0.0 0.0 0.00 0.00 0.00 78 1014.8
20260903105025 74 163 0.0 0.0 0.00 0.00 0.00 78 1014.8
20260903104526 74 163 0.0 0.0 0.00 0.00 0.00 78 1014.7
20260903104027 74 163 0.0 0.0 0.00 0.00 0.00 77 1014.6
20260903103522 74 163 0.0 0.0 0.00 0.00 0.00 78 1014.5
20260903103123 74 163 0.0 0.0 0.00 0.00 0.00 78 1014.6
20260903102522 74 163 0.0 0.0 0.00 0.00 0.00 78 1014.7
20260903102024 74 163 0.0 0.0 0.00 0.00 0.00 77 1014.7
20260903101529 74 163 0.0 0.0 0.00 0.00 0.00 77 1014.6
20260903101021 74 163 0.0 0.0 0.00 0.00 0.00 77 1014.5
20260903100521 74 163 0.0 0.0 0.00 0.00 0.00 77 1014.6
20260903100026 74 163 0.0 0.0 0.00 0.00 0.00 77 1014.6
20260903095525 74 163 0.0 0.0 0.00 0.00 0.00 77 1014.5
20260903095026 74 163 0.0 0.0 0.00 0.00 0.00 77 1014.5
20260903094520 74 163 0.0 0.0 0.00 0.00 0.00 77 1014.5
20260903094019 74 163 0.0 0.0 0.00 0.00 0.00 77 1014.5
20260903093519 74 163 0.0 0.0 0.00 0.00 0.00 76 1014.5
20260903093018 74 163 0.0 0.0 0.00 0.00 0.00 76 1014.5
20260903092518 74 163 0.0 0.0 0.00 0.00 0.00 76 1014.4
20260903092018 74 163 0.0 0.0 0.00 0.00 0.00 76 1014.5
20260903091516 74 163 0.0 0.0 0.00 0.00 0.00 76 1014.5
20260903091016 74 163 0.0 0.0 0.00 0.00 0.00 76 1014.5
20260903090516 74 163 0.0 0.0 0.00 0.00 0.00 76 1014.4
20260903090016 74 163 0.0 0.0 0.00 0.00 0.00 75 1014.5
20260903085516 74 163 0.0 0.0 0.00 0.00 0.00 75 1014.4
20260903085016 74 163 0.0 0.0 0.00 0.00 0.00 75 1014.4
20260903084517 74 163 0.0 0.0 0.00 0.00 0.00 75 1014.4
20260903084016 74 163 0.0 0.0 0.00 0.00 0.00 74 1014.3
20260903083514 74 163 0.0 0.0 0.00 0.00 0.00 74 1014.3
20260903083014 74 163 0.0 0.0 0.00 0.00 0.00 74 1014.4
20260903082514 75 163 0.0 0.0 0.00 0.00 0.00 74 1014.4
20260903082014 75 163 0.0 0.0 0.00 0.00 0.00 74 1014.3
20260903081513 75 163 0.0 0.0 0.00 0.00 0.00 74 1014.3
20260903081012 75 163 0.0 0.0 0.00 0.00 0.00 73 1014.3
20260903080512 75 163 0.0 0.0 0.00 0.00 0.00 73 1014.3
20260903080012 75 163 0.0 0.0 0.00 0.00 0.00 73 1014.3
20260903075512 75 163 0.0 0.0 0.00 0.00 0.00 73 1014.3
20260903075014 75 163 0.0 0.0 0.00 0.00 0.00 73 1014.3
20260903074512 75 163 0.0 0.0 0.00 0.00 0.00 73 1014.2
20260903074011 75 163 0.0 0.0 0.00 0.00 0.00 73 1014.2
20260903073511 75 163 0.0 0.0 0.00 0.00 0.00 73 1014.1
20260903073011 75 163 0.0 0.0 0.00 0.00 0.00 73 1014.2
20260903072509 75 163 0.0 0.0 0.00 0.00 0.00 73 1014.1
20260903072009 75 163 0.0 0.0 0.00 0.00 0.00 73 1014.0
20260903071509 75 163 0.0 0.0 0.00 0.00 0.00 73 1014.1
20260903071008 75 163 0.0 0.0 0.00 0.00 0.00 73 1014.1
20260903070508 75 163 0.0 0.0 0.00 0.00 0.00 73 1014.1
20260903070008 75 163 0.0 0.0 0.00 0.00 0.00 73 1014.1
20260903065508 75 163 0.0 0.0 0.00 0.00 0.00 73 1014.1
20260903065007 75 163 0.0 0.0 0.00 0.00 0.00 73 1014.1
20260903064508 75 163 0.0 0.0 0.00 0.00 0.00 73 1014.2
20260903064006 75 163 0.0 0.0 0.00 0.00 0.00 73 1014.2
20260903063506 76 163 0.0 0.0 0.00 0.00 0.00 73 1014.2
20260903063006 76 163 0.0 0.0 0.00 0.00 0.00 73 1014.2
20260903062506 76 163 0.0 0.0 0.00 0.00 0.00 73 1014.2
20260903062005 76 163 0.0 0.0 0.00 0.00 0.00 73 1014.2
20260903061504 76 163 0.0 0.0 0.00 0.00 0.00 73 1014.1
20260903061005 76 163 0.0 0.0 0.00 0.00 0.00 73 1014.1
20260903060503 76 163 0.0 0.0 0.00 0.00 0.00 73 1014.1
20260903060003 76 163 0.0 0.0 0.00 0.00 0.00 73 1014.1
20260903055502 76 163 0.0 0.0 0.00 0.00 0.00 73 1014.1
20260903055002 76 163 0.0 0.0 0.00 0.00 0.00 73 1014.1
20260903054502 76 163 0.0 0.0 0.00 0.00 0.00 73 1014.1
20260903054003 76 163 0.0 0.0 0.00 0.00 0.00 73 1014.1
20260903053502 76 163 0.0 0.0 0.00 0.00 0.00 73 1014.2
20260903053100 76 163 0.0 0.0 0.00 0.00 0.00 72 1014.1
20260903052600 76 163 0.0 0.0 0.00 0.00 0.00 72 1014.1
20260903052104 76 163 0.0 0.0 0.00 0.00 0.00 72 1014.1
20260903051601 76 163 0.0 0.0 0.00 0.00 0.00 72 1014.0
20260903051058 77 163 0.0 0.0 0.00 0.00 0.00 72 1014.0
20260903050601 77 163 0.0 0.0 0.00 0.00 0.00 72 1014.0
20260903050058 77 163 0.0 0.0 0.00 0.00 0.00 72 1014.0
20260903045558 77 163 0.0 0.0 0.00 0.00 0.00 72 1013.9
20260903045058 77 163 0.0 0.0 0.00 0.00 0.00 72 1013.9
20260903044556 77 163 0.0 0.0 0.00 0.00 0.00 72 1013.9
20260903044056 77 163 0.0 0.0 0.00 0.00 0.00 71 1013.9
20260903043555 77 163 0.0 0.0 0.00 0.00 0.00 71 1013.9
20260903043105 77 163 0.0 0.0 0.00 0.00 0.00 71 1013.9
20260903042554 77 163 0.0 0.0 0.00 0.00 0.00 71 1013.9
20260903042054 77 163 0.0 0.0 0.00 0.00 0.00 71 1013.9
20260903041553 77 163 0.0 0.0 0.00 0.00 0.00 71 1013.9
20260903041053 77 163 0.0 0.0 0.00 0.00 0.00 71 1013.9
20260903040554 78 163 0.0 0.0 0.00 0.00 0.00 71 1013.9
20260903040052 78 163 0.0 0.0 0.00 0.00 0.00 71 1013.9
20260903035551 78 163 0.0 0.0 0.00 0.00 0.00 71 1014.0
20260903035051 78 163 0.0 0.0 0.00 0.00 0.00 71 1013.9
20260903034555 78 163 0.0 0.0 0.00 0.00 0.00 71 1014.0
20260903034050 78 163 0.0 0.0 0.00 0.00 0.00 71 1013.9
20260903033550 78 163 0.0 0.0 0.00 0.00 0.00 70 1014.0
20260903033051 78 163 0.0 0.0 0.00 0.00 0.00 70 1014.1
20260903032550 78 163 0.0 0.0 0.00 0.00 0.00 70 1014.0
20260903032050 78 163 0.0 0.0 0.00 0.00 0.00 70 1014.1
20260903031553 79 163 0.0 0.0 0.00 0.00 0.00 70 1014.1
20260903031050 79 163 0.0 0.0 0.00 0.00 0.00 70 1014.2
20260903030550 79 163 0.0 0.0 0.00 0.00 0.00 69 1014.1
20260903030103 79 163 0.0 0.0 0.00 0.00 0.00 69 1014.2
20260903025549 79 163 0.0 0.0 0.00 0.00 0.00 69 1014.2
20260903025049 79 163 0.0 0.0 0.00 0.00 0.00 69 1014.2
20260903024549 79 163 0.0 0.0 0.00 0.00 0.00 69 1014.2
20260903024048 79 163 0.0 0.0 0.00 0.00 0.00 69 1014.3
20260903023548 80 163 0.0 0.0 0.00 0.00 0.00 68 1014.3
20260903023048 80 163 0.0 0.0 0.00 0.00 0.00 68 1014.2
20260903022548 80 163 0.0 0.0 0.00 0.00 0.00 68 1014.2
20260903022047 80 163 0.0 0.0 0.00 0.00 0.00 68 1014.2
20260903021548 80 163 0.0 0.0 0.00 0.00 0.00 68 1014.3
20260903021048 80 163 0.0 0.0 0.00 0.00 0.00 68 1014.2
20260903020547 81 163 0.0 0.0 0.00 0.00 0.00 68 1014.2
20260903020053 81 163 0.0 0.0 0.00 0.00 0.00 67 1014.2
20260903015547 81 163 0.0 0.0 0.00 0.00 0.00 67 1014.2
20260903015050 81 163 0.0 0.0 0.00 0.00 0.00 67 1014.3
20260903014554 81 163 0.0 0.0 0.00 0.00 0.00 67 1014.3
20260903014046 81 163 0.0 0.0 0.00 0.00 0.00 66 1014.3
20260903013550 82 163 0.0 0.0 0.00 0.00 0.00 66 1014.3
20260903013050 82 163 0.0 0.0 0.00 0.00 0.00 66 1014.4
20260903012547 82 163 0.0 0.0 0.00 0.00 0.00 66 1014.3
20260903012046 82 163 0.0 0.0 0.00 0.00 0.00 66 1014.2
20260903011545 83 163 0.0 0.0 0.00 0.00 0.00 65 1014.2
20260903011045 83 163 0.0 0.0 0.00 0.00 0.00 64 1014.2
20260903010545 83 163 0.0 0.0 0.00 0.00 0.00 63 1014.1
20260903010045 83 163 0.0 0.0 0.00 0.00 0.00 63 1014.1
20260903005544 84 163 0.0 0.0 0.00 0.00 0.00 63 1014.0
20260903005045 84 163 0.0 0.0 0.00 0.00 0.00 63 1013.9
20260903004550 84 163 0.0 0.0 0.00 0.00 0.00 62 1013.9
20260903004044 85 163 0.0 0.0 0.00 0.00 0.00 62 1013.9
20260903003544 85 163 0.0 0.0 0.00 0.00 0.00 62 1013.9
20260903003043 85 163 0.0 0.0 0.00 0.00 0.00 61 1013.9
20260903002543 85 163 0.0 0.0 0.00 0.00 0.00 61 1013.8
20260903002044 86 163 0.0 0.0 0.00 0.00 0.00 61 1013.7
20260903001543 86 163 0.0 0.0 0.00 0.00 0.00 61 1013.7
20260903001043 87 163 0.0 0.0 0.00 0.00 0.00 60 1013.7
20260903000543 87 163 0.0 0.0 0.00 0.00 0.00 59 1014.2
20260903000046 87 163 0.0 0.0 0.00 0.00 0.00 59 1013.7
20260902235543 88 163 0.0 0.0 0.00 0.00 0.00 58 1013.7
20260902235042 88 163 0.0 0.0 0.00 0.00 0.00 57 1013.7
20260902234546 88 163 0.0 0.0 0.00 0.00 0.00 55 1013.7
20260902234043 88 163 0.0 0.0 0.00 0.00 0.00 55 1013.6
20260902233542 89 163 0.0 1.0 0.00 0.00 0.00 55 1013.6
20260902233048 89 163 0.0 1.0 0.00 0.00 0.00 55 1013.6
20260902232542 89 163 0.0 0.0 0.00 0.00 0.00 54 1013.7
20260902232041 90 163 0.0 0.0 0.00 0.00 0.00 54 1013.7
20260902231541 90 163 0.0 0.0 0.00 0.00 0.00 53 1013.7
20260902231042 90 163 0.0 0.0 0.00 0.00 0.00 53 1013.7
20260902230540 90 163 0.0 1.0 0.00 0.00 0.00 52 1013.7
20260902230040 90 163 0.0 2.0 0.00 0.00 0.00 51 1013.9
20260902225541 91 163 0.0 3.0 0.00 0.00 0.00 51 1013.8
20260902225041 91 212 0.0 2.0 0.00 0.00 0.00 50 1013.8
20260902224549 91 172 0.0 2.0 0.00 0.00 0.00 51 1013.9
20260902224039 91 186 0.0 2.0 0.00 0.00 0.00 49 1013.8
20260902223539 92 247 0.0 1.0 0.00 0.00 0.00 50 1013.8
20260902223053 92 247 0.0 0.0 0.00 0.00 0.00 50 1013.8
20260902222539 92 247 0.0 2.0 0.00 0.00 0.00 49 1013.8
20260902222038 92 247 0.0 2.0 0.00 0.00 0.00 48 1013.9
20260902221541 93 196 0.0 1.0 0.00 0.00 0.00 49 1013.9
20260902221041 93 196 0.0 2.0 0.00 0.00 0.00 48 1013.9
20260902220538 93 196 0.0 3.0 0.00 0.00 0.00 48 1013.9
20260902220042 93 248 0.0 3.0 0.00 0.00 0.00 48 1013.8
20260902215538 93 271 0.0 0.0 0.00 0.00 0.00 48 1013.8
20260902215037 93 271 0.0 0.0 0.00 0.00 0.00 49 1013.9
20260902214537 93 271 0.0 0.0 0.00 0.00 0.00 48 1014.0
20260902214037 93 271 0.0 2.0 0.00 0.00 0.00 48 1014.1
20260902213536 93 275 0.0 2.0 0.00 0.00 0.00 47 1014.0
20260902213038 93 248 0.0 2.0 0.00 0.00 0.00 46 1014.0
20260902212536 93 158 0.0 2.0 0.00 0.00 0.00 47 1014.0
20260902212036 93 163 0.0 1.0 0.00 0.00 0.00 47 1014.0
20260902211535 93 161 0.0 1.0 0.00 0.00 0.00 46 1014.1
20260902211035 94 106 0.0 0.0 0.00 0.00 0.00 47 1014.1
20260902210535 94 107 0.0 0.0 0.00 0.00 0.00 47 1014.0
20260902210035 94 107 0.0 1.0 0.00 0.00 0.00 45 1014.0